Home   Weather   Bakersfield   Past weeks

Flag for USA Past Weather in Bakersfield, California, USA — Yesterday and Last 2 Weeks

Now
59 °F

Sunny.


Feels Like: 58 °F
Forecast: 56 / 76 °F
Wind: 8 mph from Northwest

Location: Meadows Field

Current Time: Apr 23, 2017 at 9:02:27 am

Latest Report: Apr 23, 2017 at 7:54 am


Visibility: 10 mi

Pressure: 29.97 "Hg

Humidity: 69%

Dew Point: 49 °F

Location of BakersfieldLocation

Past Weather in Bakersfield — Graph

°F

Bakersfield Temperature Yesterday

Maximum temperature yesterday: 84 °F (at 3:54 pm)
Minimum temperature yesterday: 55 °F (at 3:54 am)
Average temperature yesterday: 70 °F

High & Low Weather Summary for the Past Weeks

 TemperatureHumidityPressure
High85 °F (Apr 16, 12:54 pm)96% (Apr 19, 1:43 am)30.24 "Hg (Apr 19, 1:43 am)
Low42 °F (Apr 9, 3:54 am)15% (Apr 16, 3:54 pm)29.85 "Hg (Apr 22, 6:54 pm)
Average63 °F55%30.05 "Hg
* Reported Apr 8 7:54 am — Apr 23 7:54 am, Bakersfield, Weather by CustomWeather, © 2017

Note: Actual official high and low records may vary slightly from our data, if they occured in-between our weather recording intervals... More about our weather records

Advertising

Bakersfield Weather History for the Previous 24 Hours

Scroll right to see more
 ConditionsComfort  
Time TempWeatherWind HumidityBarometerVisibility
7:54 am
Sun, Apr 23
59 °FSunny.8 mph69%29.97 "Hg10 mi
6:54 am55 °FSunny.3 mph83%29.94 "Hg10 mi
5:54 am57 °FClear.6 mph81%29.91 "Hg10 mi
4:54 am58 °FClear.5 mph78%29.90 "Hg10 mi
3:54 am58 °FClear.No wind78%29.90 "Hg10 mi
2:54 am60 °FClear.No wind72%29.90 "Hg10 mi
1:54 am61 °FClear.No wind72%29.91 "Hg10 mi
12:54 am61 °FClear.6 mph70%29.90 "Hg10 mi
11:54 pm
Sat, Apr 22
66 °FClear.9 mph59%29.91 "Hg10 mi
10:54 pm68 °FClear.12 mph55%29.89 "Hg10 mi
9:54 pm73 °FClear.8 mph46%29.86 "Hg10 mi
8:54 pm74 °FClear.8 mph45%29.86 "Hg10 mi
7:54 pm77 °FClear.7 mph36%29.85 "Hg10 mi
6:54 pm81 °FSunny.7 mph29%29.85 "Hg10 mi
5:54 pm84 °FSunny.No wind26%29.86 "Hg10 mi
4:54 pm83 °FSunny.7 mph27%29.87 "Hg10 mi
3:54 pm84 °FSunny.No wind29%29.88 "Hg10 mi
2:54 pm83 °FSunny.9 mph30%29.91 "Hg10 mi
1:54 pm81 °FSunny.N/A32%29.92 "Hg10 mi
12:54 pm80 °FSunny.7 mph31%29.93 "Hg10 mi
10:54 am75 °FSunny.6 mph39%29.98 "Hg10 mi
9:54 am70 °FSunny.3 mph46%29.98 "Hg10 mi
Weather by CustomWeather, © 2017

See weather overviewHow to use our weather pages